Time,TemperatureF,DewpointF,PressureIn,WindDirection,WindDirectionDegrees,WindSpeedMPH,WindSpeedGustMPH,Humidity,HourlyPrecipIn,Conditions,Clouds,dailyrainin,SoftwareType,DateUTC
2013-01-26 00:00:00,52.7,42.0,29.92,NE,45,0.9,0.9,67,0.00,RA,SKC,0.00,WeatherDisplay:10.37,2013-01-25 13:00:00,
2013-01-26 00:05:00,52.5,42.3,29.92,NE,45,1.1,1.1,68,0.00,RA,SKC,0.00,WeatherDisplay:10.37,2013-01-25 13:05:00,
2013-01-26 00:10:00,52.5,42.3,29.91,WSW,248,2.3,2.3,68,0.00,CLR,SKC,0.00,WeatherDisplay:10.37,2013-01-25 13:10:00,
2013-01-26 00:15:00,52.3,42.1,29.91,NNE,22,1.1,1.1,68,0.00,CLR,SKC,0.00,WeatherDisplay:10.37,2013-01-25 13:15:00,
2013-01-26 00:21:00,52.3,42.5,29.90,NE,45,2.5,2.5,69,0.00,CLR,SKC,0.00,WeatherDisplay:10.37,2013-01-25 13:21:00,
2013-01-26 00:26:00,52.2,42.3,29.90,SSE,158,2.3,2.3,69,0.00,CLR,SKC,0.00,WeatherDisplay:10.37,2013-01-25 13:26:00,
2013-01-26 00:31:00,52.0,42.1,29.91,NNW,338,2.3,2.3,69,0.00,CLR,SKC,0.00,WeatherDisplay:10.37,2013-01-25 13:31:00,
2013-01-26 00:36:00,51.8,41.9,29.90,South,180,2.2,2.2,69,0.00,CLR,SKC,0.00,WeatherDisplay:10.37,2013-01-25 13:36:00,
2013-01-26 00:42:00,51.6,42.2,29.90,NNE,22,0.0,0.0,70,0.00,CLR,SKC,0.00,WeatherDisplay:10.37,2013-01-25 13:42:00,
2013-01-26 00:47:00,51.6,42.2,29.90,ESE,112,1.6,1.6,70,0.00,CLR,SKC,0.00,WeatherDisplay:10.37,2013-01-25 13:47:00,
2013-01-26 00:52:00,51.6,42.2,29.90,NE,45,3.5,3.5,70,0.00,CLR,SKC,0.00,WeatherDisplay:10.37,2013-01-25 13:52:00,
2013-01-26 00:57:00,51.6,42.2,29.90,SW,225,0.0,0.0,70,0.00,CLR,SKC,0.00,WeatherDisplay:10.37,2013-01-25 13:57:00,
2013-01-26 01:03:00,51.4,42.0,29.90,NW,315,3.5,3.5,70,0.00,CLR,SKC,0.00,WeatherDisplay:10.37,2013-01-25 14:03:00,
2013-01-26 01:08:00,51.4,42.0,29.91,SE,135,0.0,0.0,70,0.00,CLR,SKC,0.00,WeatherDisplay:10.37,2013-01-25 14:08:00,
2013-01-26 01:13:00,51.3,41.8,29.91,WNW,292,0.0,0.0,70,0.00,CLR,SKC,0.00,WeatherDisplay:10.37,2013-01-25 14:13:00,
2013-01-26 01:18:00,51.3,41.8,29.90,WSW,248,3.5,3.5,70,0.00,CLR,SKC,0.00,WeatherDisplay:10.37,2013-01-25 14:18:00,
2013-01-26 01:24:00,51.1,42.0,29.91,NNW,338,0.0,0.0,71,0.00,CLR,SKC,0.00,WeatherDisplay:10.37,2013-01-25 14:24:00,
2013-01-26 01:29:00,51.1,42.0,29.91,NNW,338,0.0,0.0,71,0.00,CLR,SKC,0.00,WeatherDisplay:10.37,2013-01-25 14:29:00,
2013-01-26 01:34:00,51.3,42.5,29.91,South,180,0.0,0.0,72,0.00,CLR,SKC,0.00,WeatherDisplay:10.37,2013-01-25 14:34:00,
2013-01-26 01:39:00,51.4,42.7,29.90,WSW,248,0.0,0.0,72,0.00,CLR,SKC,0.00,WeatherDisplay:10.37,2013-01-25 14:39:00,
2013-01-26 01:44:00,51.4,42.7,29.91,West,270,0.0,0.0,72,0.00,CLR,SKC,0.00,WeatherDisplay:10.37,2013-01-25 14:44:00,
2013-01-26 01:49:00,51.4,42.7,29.91,West,270,2.9,2.9,72,0.00,CLR,SKC,0.00,WeatherDisplay:10.37,2013-01-25 14:49:00,
2013-01-26 01:54:00,51.4,42.7,29.91,SW,225,0.0,0.0,72,0.00,CLR,SKC,0.00,WeatherDisplay:10.37,2013-01-25 14:54:00,
2013-01-26 01:59:00,51.3,42.9,29.91,WSW,248,1.6,1.6,73,0.00,CLR,SKC,0.00,WeatherDisplay:10.37,2013-01-25 14:59:00,
2013-01-26 02:04:00,51.3,42.9,29.90,West,270,2.3,2.3,73,0.00,CLR,SKC,0.00,WeatherDisplay:10.37,2013-01-25 15:04:00,
2013-01-26 02:10:00,51.1,42.7,29.90,WSW,258,1.0,1.0,73,0.00,CLR,SKC,0.00,WeatherDisplay:10.37,2013-01-25 15:10:00,
2013-01-26 02:15:00,51.1,42.7,29.90,West,270,0.0,0.0,73,0.00,CLR,SKC,0.00,WeatherDisplay:10.37,2013-01-25 15:15:00,
2013-01-26 02:20:00,51.1,42.7,29.90,South,182,2.0,2.0,73,0.00,CLR,SKC,0.00,WeatherDisplay:10.37,2013-01-25 15:20:00,
2013-01-26 02:25:00,51.1,42.7,29.90,SSW,211,0.0,2.0,73,0.00,CLR,SKC,0.00,WeatherDisplay:10.37,2013-01-25 15:25:00,
2013-01-26 02:30:00,51.1,42.7,29.89,ESE,112,0.0,0.0,73,0.00,CLR,SKC,0.00,WeatherDisplay:10.37,2013-01-25 15:30:00,
2013-01-26 02:35:00,50.9,42.6,29.89,South,180,2.3,2.3,73,0.00,CLR,SKC,0.00,WeatherDisplay:10.37,2013-01-25 15:35:00,
2013-01-26 02:40:00,50.9,42.9,29.90,SW,219,0.0,2.0,74,0.00,CLR,SKC,0.00,WeatherDisplay:10.37,2013-01-25 15:40:00,
2013-01-26 02:45:00,50.9,42.6,29.90,SW,230,0.0,0.0,73,0.00,CLR,SKC,0.00,WeatherDisplay:10.37,2013-01-25 15:45:00,
2013-01-26 02:50:00,50.9,42.6,29.89,WSW,240,1.0,1.0,73,0.00,CLR,SKC,0.00,WeatherDisplay:10.37,2013-01-25 15:50:00,
2013-01-26 02:55:00,50.9,42.6,29.89,WSW,251,1.0,2.0,73,0.00,CLR,SKC,0.00,WeatherDisplay:10.37,2013-01-25 15:55:00,
2013-01-26 03:00:00,50.9,42.6,29.89,West,270,0.0,0.0,73,0.00,CLR,SKC,0.00,WeatherDisplay:10.37,2013-01-25 16:00:00,
2013-01-26 03:05:00,50.9,42.6,29.89,SE,135,1.1,1.1,73,0.00,CLR,SKC,0.00,WeatherDisplay:10.37,2013-01-25 16:05:00,
2013-01-26 03:10:00,50.7,42.4,29.88,SSW,202,0.0,0.0,73,0.00,CLR,SKC,0.00,WeatherDisplay:10.37,2013-01-25 16:10:00,
2013-01-26 03:15:00,50.7,42.4,29.88,NW,315,0.0,0.0,73,0.00,CLR,SKC,0.00,WeatherDisplay:10.37,2013-01-25 16:15:00,
2013-01-26 03:21:00,50.7,42.4,29.89,SE,135,3.5,3.5,73,0.00,CLR,SKC,0.00,WeatherDisplay:10.37,2013-01-25 16:21:00,
2013-01-26 03:26:00,50.7,42.7,29.89,SW,225,1.1,1.1,74,0.00,CLR,SKC,0.00,WeatherDisplay:10.37,2013-01-25 16:26:00,
2013-01-26 03:31:00,50.5,42.6,29.88,SE,135,0.0,0.0,74,0.00,CLR,SKC,0.00,WeatherDisplay:10.37,2013-01-25 16:31:00,
2013-01-26 03:36:00,50.5,42.6,29.88,West,270,0.0,0.0,74,0.00,CLR,SKC,0.00,WeatherDisplay:10.37,2013-01-25 16:36:00,
2013-01-26 03:42:00,50.5,42.6,29.89,SW,225,0.0,0.0,74,0.00,CLR,SKC,0.00,WeatherDisplay:10.37,2013-01-25 16:42:00,
2013-01-26 03:47:00,50.5,42.6,29.89,WSW,248,0.0,0.0,74,0.00,CLR,SKC,0.00,WeatherDisplay:10.37,2013-01-25 16:47:00,
2013-01-26 03:52:00,50.5,42.6,29.89,South,180,1.1,1.1,74,0.00,CLR,SKC,0.00,WeatherDisplay:10.37,2013-01-25 16:52:00,
2013-01-26 03:57:00,50.5,42.6,29.89,WNW,292,0.0,0.0,74,0.00,CLR,SKC,0.00,WeatherDisplay:10.37,2013-01-25 16:57:00,
2013-01-26 04:02:00,50.7,42.7,29.89,SSW,202,1.1,1.1,74,0.00,CLR,SKC,0.00,WeatherDisplay:10.37,2013-01-25 17:02:00,
2013-01-26 04:07:00,50.7,42.7,29.89,WNW,292,1.1,1.1,74,0.00,CLR,SKC,0.00,WeatherDisplay:10.37,2013-01-25 17:07:00,
2013-01-26 04:12:00,50.9,42.9,29.89,West,270,0.0,0.0,74,0.00,CLR,SKC,0.00,WeatherDisplay:10.37,2013-01-25 17:12:00,
2013-01-26 04:17:00,51.1,43.4,29.89,South,180,1.3,1.3,75,0.00,CLR,SKC,0.00,WeatherDisplay:10.37,2013-01-25 17:17:00,
2013-01-26 04:22:00,51.1,43.4,29.90,West,270,1.1,1.1,75,0.00,CLR,SKC,0.00,WeatherDisplay:10.37,2013-01-25 17:22:00,
2013-01-26 04:27:00,51.1,43.4,29.90,SW,225,2.3,2.3,75,0.00,CLR,SKC,0.00,WeatherDisplay:10.37,2013-01-25 17:27:00,
2013-01-26 04:33:00,51.1,43.4,29.89,West,270,0.0,0.0,75,0.00,CLR,SKC,0.00,WeatherDisplay:10.37,2013-01-25 17:33:00,
2013-01-26 04:38:00,51.1,43.4,29.90,WNW,292,0.0,0.0,75,0.00,CLR,SKC,0.00,WeatherDisplay:10.37,2013-01-25 17:38:00,
2013-01-26 04:43:00,51.1,43.4,29.89,WSW,248,1.1,1.1,75,0.00,CLR,SKC,0.00,WeatherDisplay:10.37,2013-01-25 17:43:00,
2013-01-26 04:48:00,50.9,43.3,29.90,SSW,202,2.3,2.3,75,0.00,CLR,SKC,0.00,WeatherDisplay:10.37,2013-01-25 17:48:00,
2013-01-26 04:53:00,50.9,43.3,29.90,West,270,0.0,0.0,75,0.00,CLR,SKC,0.00,WeatherDisplay:10.37,2013-01-25 17:53:00,
2013-01-26 04:58:00,50.9,43.3,29.89,WSW,248,3.5,3.5,75,0.00,CLR,SKC,0.00,WeatherDisplay:10.37,2013-01-25 17:58:00,
2013-01-26 05:03:00,50.9,43.3,29.90,WSW,248,0.0,0.0,75,0.00,CLR,SKC,0.00,WeatherDisplay:10.37,2013-01-25 18:03:00,
2013-01-26 05:08:00,50.7,43.1,29.90,South,180,2.5,2.5,75,0.00,CLR,SKC,0.00,WeatherDisplay:10.37,2013-01-25 18:08:00,
2013-01-26 05:14:00,50.7,43.4,29.90,West,270,1.1,1.1,76,0.00,CLR,SKC,0.00,WeatherDisplay:10.37,2013-01-25 18:14:00,
2013-01-26 05:19:00,50.7,43.4,29.90,SE,135,2.3,2.3,76,0.00,CLR,SKC,0.00,WeatherDisplay:10.37,2013-01-25 18:19:00,
2013-01-26 05:24:00,50.7,43.4,29.90,SSE,158,3.5,3.5,76,0.00,CLR,SKC,0.00,WeatherDisplay:10.37,2013-01-25 18:24:00,
2013-01-26 05:29:00,50.9,43.6,29.90,West,270,3.5,3.5,76,0.00,CLR,SKC,0.00,WeatherDisplay:10.37,2013-01-25 18:29:00,
2013-01-26 05:34:00,50.9,43.6,29.90,West,270,3.5,3.5,76,0.00,CLR,SKC,0.00,WeatherDisplay:10.37,2013-01-25 18:34:00,
2013-01-26 05:40:00,50.9,43.6,29.90,SW,234,1.0,4.0,76,0.00,CLR,SKC,0.00,WeatherDisplay:10.37,2013-01-25 18:40:00,
2013-01-26 05:45:00,50.7,43.1,29.90,NW,315,2.0,2.0,75,0.00,CLR,SKC,0.00,WeatherDisplay:10.37,2013-01-25 18:45:00,
2013-01-26 05:50:00,50.7,43.1,29.89,WNW,292,2.3,0.0,75,0.00,CLR,SKC,0.00,WeatherDisplay:10.37,2013-01-25 18:50:00,
2013-01-26 05:55:00,50.7,43.1,29.90,SSE,158,2.5,2.5,75,0.00,CLR,SKC,0.00,WeatherDisplay:10.37,2013-01-25 18:55:00,
2013-01-26 06:00:00,50.5,42.9,29.90,WSW,248,5.8,5.8,75,0.00,CLR,SKC,0.00,WeatherDisplay:10.37,2013-01-25 19:00:00,
2013-01-26 06:06:00,50.5,43.3,29.89,East,90,3.5,0.0,76,0.00,CLR,SKC,0.00,WeatherDisplay:10.37,2013-01-25 19:06:00,
2013-01-26 06:11:00,50.4,43.1,29.89,WNW,292,2.3,2.3,76,0.00,CLR,SKC,0.00,WeatherDisplay:10.37,2013-01-25 19:11:00,
2013-01-26 06:16:00,50.2,42.9,29.89,WSW,248,1.1,0.0,76,0.00,CLR,SKC,0.00,WeatherDisplay:10.37,2013-01-25 19:16:00,
2013-01-26 06:22:00,50.2,42.9,29.89,North,0,1.1,1.1,76,0.00,CLR,SKC,0.00,WeatherDisplay:10.37,2013-01-25 19:22:00,
2013-01-26 06:27:00,50.0,42.7,29.89,NNE,22,1.6,1.6,76,0.00,CLR,SKC,0.00,WeatherDisplay:10.37,2013-01-25 19:27:00,
2013-01-26 06:32:00,49.8,42.6,29.89,NW,315,0.0,0.0,76,0.00,CLR,SKC,0.00,WeatherDisplay:10.37,2013-01-25 19:32:00,
2013-01-26 06:37:00,49.8,42.6,29.89,NNE,22,1.1,1.1,76,0.00,CLR,SKC,0.00,WeatherDisplay:10.37,2013-01-25 19:37:00,
2013-01-26 06:42:00,49.8,42.6,29.89,South,180,0.0,0.0,76,0.00,CLR,SKC,0.00,WeatherDisplay:10.37,2013-01-25 19:42:00,
2013-01-26 06:48:00,49.6,42.4,29.89,NW,315,1.3,1.3,76,0.00,CLR,SKC,0.00,WeatherDisplay:10.37,2013-01-25 19:48:00,
2013-01-26 06:53:00,49.6,42.4,29.89,ESE,112,1.1,0.0,76,0.00,CLR,SKC,0.00,WeatherDisplay:10.37,2013-01-25 19:53:00,
2013-01-26 06:58:00,49.6,42.4,29.89,SW,225,0.0,0.0,76,0.00,CLR,SKC,0.00,WeatherDisplay:10.37,2013-01-25 19:58:00,
2013-01-26 07:03:00,49.6,42.4,29.90,West,270,0.0,0.0,76,0.00,CLR,SKC,0.00,WeatherDisplay:10.37,2013-01-25 20:03:00,
2013-01-26 07:08:00,49.6,42.4,29.89,NW,315,0.0,0.0,76,0.00,CLR,SKC,0.00,WeatherDisplay:10.37,2013-01-25 20:08:00,
2013-01-26 07:13:00,49.6,42.4,29.89,SE,135,0.0,0.0,76,0.00,CLR,SKC,0.00,WeatherDisplay:10.37,2013-01-25 20:13:00,
2013-01-26 07:19:00,49.6,42.4,29.90,NW,315,0.0,0.0,76,0.00,CLR,SKC,0.00,WeatherDisplay:10.37,2013-01-25 20:19:00,
2013-01-26 07:24:00,49.8,42.6,29.90,NNW,338,4.6,4.6,76,0.00,CLR,SKC,0.00,WeatherDisplay:10.37,2013-01-25 20:24:00,
2013-01-26 07:29:00,49.8,42.6,29.90,SE,135,2.3,2.3,76,0.00,CLR,SKC,0.00,WeatherDisplay:10.37,2013-01-25 20:29:00,
2013-01-26 07:34:00,49.8,42.6,29.90,NW,315,0.0,0.0,76,0.00,CLR,SKC,0.00,WeatherDisplay:10.37,2013-01-25 20:34:00,
2013-01-26 07:39:00,50.2,42.9,29.90,SW,225,0.0,0.0,76,0.00,CLR,SKC,0.00,WeatherDisplay:10.37,2013-01-25 20:39:00,
2013-01-26 07:44:00,50.4,43.1,29.90,South,180,0.0,0.0,76,0.00,CLR,SKC,0.00,WeatherDisplay:10.37,2013-01-25 20:44:00,
2013-01-26 07:49:00,50.7,43.4,29.90,West,270,0.9,0.9,76,0.00,CLR,SKC,0.00,WeatherDisplay:10.37,2013-01-25 20:49:00,
2013-01-26 07:55:00,51.1,43.8,29.90,ESE,112,0.0,0.0,76,0.00,CLR,SKC,0.00,WeatherDisplay:10.37,2013-01-25 20:55:00,
2013-01-26 08:00:00,51.5,43.8,29.90,SSW,209,3.0,3.0,75,0.00,CLR,SKC,0.00,WeatherDisplay:10.37,2013-01-25 21:00:00,
2013-01-26 08:05:00,51.9,44.3,29.90,SW,227,1.0,3.0,75,0.00,CLR,SKC,0.00,WeatherDisplay:10.37,2013-01-25 21:05:00,
2013-01-26 08:10:00,52.3,44.6,29.90,SSE,158,2.7,2.7,75,0.00,CLR,SKC,0.00,WeatherDisplay:10.37,2013-01-25 21:10:00,
2013-01-26 08:15:00,52.5,44.5,29.91,South,180,2.3,2.3,74,0.00,CLR,SKC,0.00,WeatherDisplay:10.37,2013-01-25 21:15:00,
2013-01-26 08:20:00,52.7,44.6,29.91,NNE,22,2.3,0.0,74,0.00,CLR,SKC,0.00,WeatherDisplay:10.37,2013-01-25 21:20:00,
2013-01-26 08:25:00,52.9,44.8,29.91,SSE,158,2.3,2.3,74,0.00,CLR,SKC,0.00,WeatherDisplay:10.37,2013-01-25 21:25:00,
2013-01-26 08:30:00,53.2,45.2,29.91,West,270,4.0,4.0,74,0.00,CLR,SKC,0.00,WeatherDisplay:10.37,2013-01-25 21:30:00,
2013-01-26 08:35:00,53.4,45.3,29.91,West,270,2.3,2.3,74,0.00,CLR,SKC,0.00,WeatherDisplay:10.37,2013-01-25 21:35:00,
2013-01-26 08:41:00,54.0,45.5,29.91,NE,45,1.1,1.1,73,0.00,CLR,SKC,0.00,WeatherDisplay:10.37,2013-01-25 21:41:00,
2013-01-26 08:46:00,54.3,45.8,29.90,SSW,202,2.3,2.3,73,0.00,CLR,SKC,0.00,WeatherDisplay:10.37,2013-01-25 21:46:00,
2013-01-26 08:51:00,54.7,45.8,29.91,SSE,158,0.0,0.0,72,0.00,CLR,SKC,0.00,WeatherDisplay:10.37,2013-01-25 21:51:00,
2013-01-26 08:56:00,55.2,46.3,29.91,SE,135,2.5,2.5,72,0.00,CLR,SKC,0.00,WeatherDisplay:10.37,2013-01-25 21:56:00,
2013-01-26 09:01:00,55.4,46.5,29.91,ENE,68,3.5,3.5,72,0.00,CLR,SKC,0.00,WeatherDisplay:10.37,2013-01-25 22:01:00,
2013-01-26 09:07:00,55.8,46.5,29.91,NE,45,3.5,3.5,71,0.00,CLR,SKC,0.00,WeatherDisplay:10.37,2013-01-25 22:07:00,
2013-01-26 09:12:00,56.3,47.0,29.90,ENE,68,3.5,3.5,71,0.00,CLR,SKC,0.00,WeatherDisplay:10.37,2013-01-25 22:12:00,
2013-01-26 09:17:00,56.8,47.2,29.90,SE,135,1.1,1.1,70,0.00,CLR,SKC,0.00,WeatherDisplay:10.37,2013-01-25 22:17:00,
2013-01-26 09:22:00,57.0,46.9,29.90,NW,315,3.5,3.5,69,0.00,CLR,SKC,0.00,WeatherDisplay:10.37,2013-01-25 22:22:00,
2013-01-26 09:27:00,57.0,46.6,29.90,WSW,248,1.1,1.1,68,0.00,CLR,SKC,0.00,WeatherDisplay:10.37,2013-01-25 22:27:00,
2013-01-26 09:33:00,57.6,47.1,29.90,ENE,68,2.7,2.7,68,0.00,CLR,SKC,0.00,WeatherDisplay:10.37,2013-01-25 22:33:00,
2013-01-26 09:38:00,58.1,47.6,29.90,SE,135,2.3,2.3,68,0.00,CLR,SKC,0.00,WeatherDisplay:10.37,2013-01-25 22:38:00,
2013-01-26 09:43:00,58.6,47.3,29.90,SSW,202,4.6,4.6,66,0.00,CLR,SKC,0.00,WeatherDisplay:10.37,2013-01-25 22:43:00,
2013-01-26 09:48:00,58.3,46.6,29.90,SSW,202,6.0,6.0,65,0.00,CLR,SKC,0.00,WeatherDisplay:10.37,2013-01-25 22:48:00,
2013-01-26 09:54:00,58.3,46.6,29.90,SSW,202,7.4,7.4,65,0.00,CLR,SKC,0.00,WeatherDisplay:10.37,2013-01-25 22:54:00,
2013-01-26 09:59:00,58.1,46.4,29.90,North,0,4.6,4.6,65,0.00,CLR,SKC,0.00,WeatherDisplay:10.37,2013-01-25 22:59:00,
2013-01-26 10:04:00,58.3,46.6,29.90,SE,135,3.8,3.8,65,0.00,CLR,SKC,0.00,WeatherDisplay:10.37,2013-01-25 23:04:00,
2013-01-26 10:09:00,58.3,46.6,29.90,West,270,0.0,0.0,65,0.00,CLR,SKC,0.00,WeatherDisplay:10.37,2013-01-25 23:09:00,
2013-01-26 10:14:00,58.6,46.5,29.90,SE,135,5.1,5.1,64,0.00,CLR,SKC,0.00,WeatherDisplay:10.37,2013-01-25 23:14:00,
2013-01-26 10:19:00,58.6,46.5,29.90,South,180,10.5,10.5,64,0.00,CLR,SKC,0.00,WeatherDisplay:10.37,2013-01-25 23:19:00,
2013-01-26 10:25:00,58.8,46.7,29.90,SSW,192,5.0,11.0,64,0.00,CLR,SKC,0.00,WeatherDisplay:10.37,2013-01-25 23:25:00,
2013-01-26 10:30:00,59.0,46.9,29.90,SW,214,2.0,5.0,64,0.00,CLR,SKC,0.00,WeatherDisplay:10.37,2013-01-25 23:30:00,
2013-01-26 10:34:00,59.4,46.8,29.91,SSW,211,2.0,5.0,63,0.00,CLR,SKC,0.00,WeatherDisplay:10.37,2013-01-25 23:34:00,
2013-01-26 10:40:00,59.5,46.9,29.91,SSE,163,1.0,6.0,63,0.00,CLR,SKC,0.00,WeatherDisplay:10.37,2013-01-25 23:40:00,
2013-01-26 10:45:00,59.9,46.8,29.91,East,86,5.0,5.0,62,0.00,CLR,SKC,0.00,WeatherDisplay:10.37,2013-01-25 23:45:00,
2013-01-26 10:50:00,60.4,46.9,29.91,NNW,332,1.0,2.0,61,0.00,CLR,SKC,0.00,WeatherDisplay:10.37,2013-01-25 23:50:00,
2013-01-26 10:55:00,60.6,46.7,29.91,NW,325,0.0,2.0,60,0.00,CLR,SKC,0.00,WeatherDisplay:10.37,2013-01-25 23:55:00,
2013-01-26 11:00:00,60.6,46.7,29.91,West,281,5.0,5.0,60,0.00,CLR,SKC,0.00,WeatherDisplay:10.37,2013-01-26 00:00:00,
2013-01-26 11:05:00,60.8,46.4,29.90,North,0,1.6,1.6,59,0.00,CLR,SKC,0.00,WeatherDisplay:10.37,2013-01-26 00:05:00,
2013-01-26 11:10:00,61.3,46.9,29.91,WSW,248,2.5,2.5,59,0.00,CLR,SKC,0.00,WeatherDisplay:10.37,2013-01-26 00:10:00,
2013-01-26 11:15:00,62.4,47.4,29.91,SSE,158,4.6,4.6,58,0.00,CLR,SKC,0.00,WeatherDisplay:10.37,2013-01-26 00:15:00,
2013-01-26 11:20:00,62.8,47.3,29.91,NE,45,2.3,2.3,57,0.00,CLR,SKC,0.00,WeatherDisplay:10.37,2013-01-26 00:20:00,
2013-01-26 11:25:00,63.3,47.3,29.90,SSE,158,9.2,9.2,56,0.00,CLR,SKC,0.00,WeatherDisplay:10.37,2013-01-26 00:25:00,
2013-01-26 11:31:00,63.9,47.4,29.90,SW,225,3.6,3.6,55,0.00,CLR,SKC,0.00,WeatherDisplay:10.37,2013-01-26 00:31:00,
2013-01-26 11:36:00,64.2,47.7,29.89,NW,315,1.3,1.3,55,0.00,CLR,SKC,0.00,WeatherDisplay:10.37,2013-01-26 00:36:00,
2013-01-26 11:41:00,65.1,48.1,29.89,East,90,3.5,3.5,54,0.00,CLR,SKC,0.00,WeatherDisplay:10.37,2013-01-26 00:41:00,
2013-01-26 11:46:00,65.5,47.4,29.89,WSW,248,7.4,7.4,52,0.00,CLR,SKC,0.00,WeatherDisplay:10.37,2013-01-26 00:46:00,
2013-01-26 11:52:00,66.0,47.9,29.89,East,90,3.5,3.5,52,0.00,CLR,SKC,0.00,WeatherDisplay:10.37,2013-01-26 00:52:00,
2013-01-26 11:57:00,67.3,48.5,29.89,NNW,338,3.5,3.5,51,0.00,CLR,SKC,0.00,WeatherDisplay:10.37,2013-01-26 00:57:00,
2013-01-26 12:02:00,68.0,49.2,29.89,SSW,202,1.6,1.6,51,0.00,CLR,SKC,0.00,WeatherDisplay:10.37,2013-01-26 01:02:00,
2013-01-26 12:07:00,68.2,48.3,29.89,SE,135,2.3,2.3,49,0.00,CLR,SKC,0.00,WeatherDisplay:10.37,2013-01-26 01:07:00,
2013-01-26 12:12:00,68.2,47.7,29.89,WSW,248,6.9,6.9,48,0.00,CLR,SKC,0.00,WeatherDisplay:10.37,2013-01-26 01:12:00,
2013-01-26 12:17:00,67.3,46.9,29.89,WSW,248,2.3,2.3,48,0.00,CLR,SKC,0.00,WeatherDisplay:10.37,2013-01-26 01:17:00,
2013-01-26 12:22:00,67.1,47.3,29.89,SE,135,1.6,1.6,49,0.00,CLR,SKC,0.00,WeatherDisplay:10.37,2013-01-26 01:22:00,
2013-01-26 12:27:00,67.3,47.5,29.89,SW,225,6.9,6.9,49,0.00,CLR,SKC,0.00,WeatherDisplay:10.37,2013-01-26 01:27:00,
2013-01-26 12:32:00,67.6,47.2,29.89,South,180,2.3,2.3,48,0.00,CLR,SKC,0.00,WeatherDisplay:10.37,2013-01-26 01:32:00,
2013-01-26 12:38:00,67.5,47.1,29.88,SSW,202,8.1,8.1,48,0.00,CLR,SKC,0.00,WeatherDisplay:10.37,2013-01-26 01:38:00,
2013-01-26 12:43:00,67.3,46.9,29.88,West,270,2.3,0.0,48,0.00,CLR,SKC,0.00,WeatherDisplay:10.37,2013-01-26 01:43:00,
2013-01-26 12:48:00,68.5,48.1,29.88,NE,45,1.6,1.6,48,0.00,CLR,SKC,0.00,WeatherDisplay:10.37,2013-01-26 01:48:00,
2013-01-26 12:54:00,70.0,48.2,29.88,SW,225,1.1,1.1,46,0.00,CLR,SKC,0.00,WeatherDisplay:10.37,2013-01-26 01:54:00,
2013-01-26 12:59:00,70.2,47.8,29.88,SSW,202,7.4,7.4,45,0.00,CLR,SKC,0.00,WeatherDisplay:10.37,2013-01-26 01:59:00,
2013-01-26 13:04:00,69.8,47.5,29.88,SW,225,4.6,4.6,45,0.00,CLR,SKC,0.00,WeatherDisplay:10.37,2013-01-26 02:04:00,
2013-01-26 13:09:00,70.2,47.2,29.88,WSW,248,3.5,3.5,44,0.00,CLR,SKC,0.00,WeatherDisplay:10.37,2013-01-26 02:09:00,
2013-01-26 13:15:00,70.3,47.4,29.88,SSW,195,2.0,5.0,44,0.00,CLR,SKC,0.00,WeatherDisplay:10.37,2013-01-26 02:15:00,
2013-01-26 13:20:00,70.9,47.3,29.87,SSE,162,2.0,2.0,43,0.00,CLR,SKC,0.00,WeatherDisplay:10.37,2013-01-26 02:20:00,
2013-01-26 13:25:00,70.9,47.3,29.87,SSW,207,9.0,9.0,43,0.00,CLR,SKC,0.00,WeatherDisplay:10.37,2013-01-26 02:25:00,
2013-01-26 13:30:00,70.4,46.9,29.87,South,173,2.0,9.0,43,0.00,CLR,SKC,0.00,WeatherDisplay:10.37,2013-01-26 02:30:00,
2013-01-26 13:35:00,70.5,47.5,29.88,South,180,6.9,6.9,44,0.00,CLR,SKC,0.00,WeatherDisplay:10.37,2013-01-26 02:35:00,
2013-01-26 13:40:00,70.7,47.1,29.88,NE,45,3.6,3.6,43,0.00,CLR,SKC,0.00,WeatherDisplay:10.37,2013-01-26 02:40:00,
2013-01-26 13:45:00,71.2,47.6,29.87,SSW,202,4.6,4.6,43,0.00,CLR,SKC,0.00,WeatherDisplay:10.37,2013-01-26 02:45:00,
2013-01-26 13:50:00,71.2,47.0,29.87,SW,225,3.8,3.8,42,0.00,CLR,SKC,0.00,WeatherDisplay:10.37,2013-01-26 02:50:00,
2013-01-26 13:55:00,71.4,47.1,29.87,SSW,202,3.8,3.8,42,0.00,CLR,SKC,0.00,WeatherDisplay:10.37,2013-01-26 02:55:00,
2013-01-26 14:01:00,71.4,47.7,29.87,WSW,248,2.3,2.3,43,0.00,CLR,SKC,0.00,WeatherDisplay:10.37,2013-01-26 03:01:00,
2013-01-26 14:06:00,71.4,47.1,29.87,SW,225,3.5,3.5,42,0.00,CLR,SKC,0.00,WeatherDisplay:10.37,2013-01-26 03:06:00,
2013-01-26 14:11:00,71.8,47.4,29.86,SSW,202,3.5,3.5,42,0.00,CLR,SKC,0.00,WeatherDisplay:10.37,2013-01-26 03:11:00,
2013-01-26 14:16:00,71.8,47.4,29.87,East,90,8.5,8.5,42,0.00,CLR,SKC,0.00,WeatherDisplay:10.37,2013-01-26 03:16:00,
2013-01-26 14:22:00,72.3,47.9,29.86,SW,225,8.1,8.1,42,0.00,CLR,SKC,0.00,WeatherDisplay:10.37,2013-01-26 03:22:00,
2013-01-26 14:27:00,72.1,47.1,29.86,NE,45,3.5,3.5,41,0.00,CLR,SKC,0.00,WeatherDisplay:10.37,2013-01-26 03:27:00,
2013-01-26 14:32:00,71.8,46.8,29.86,SSW,202,8.1,8.1,41,0.00,CLR,SKC,0.00,WeatherDisplay:10.37,2013-01-26 03:32:00,
2013-01-26 14:37:00,71.8,46.8,29.85,WSW,248,2.3,2.3,41,0.00,CLR,SKC,0.00,WeatherDisplay:10.37,2013-01-26 03:37:00,
2013-01-26 14:42:00,72.1,47.1,29.86,SSW,202,2.7,2.7,41,0.00,CLR,SKC,0.00,WeatherDisplay:10.37,2013-01-26 03:42:00,
2013-01-26 14:48:00,72.1,47.1,29.86,SSW,202,6.9,6.9,41,0.00,CLR,SKC,0.00,WeatherDisplay:10.37,2013-01-26 03:48:00,
2013-01-26 14:53:00,72.3,47.3,29.86,ENE,68,4.2,4.2,41,0.00,CLR,SKC,0.00,WeatherDisplay:10.37,2013-01-26 03:53:00,
2013-01-26 14:58:00,72.1,47.1,29.85,South,180,3.5,3.5,41,0.00,CLR,SKC,0.00,WeatherDisplay:10.37,2013-01-26 03:58:00,
2013-01-26 15:03:00,71.8,46.8,29.86,SSW,202,2.3,2.3,41,0.00,CLR,SKC,0.00,WeatherDisplay:10.37,2013-01-26 04:03:00,
2013-01-26 15:08:00,71.6,46.6,29.85,WSW,248,5.6,5.6,41,0.00,CLR,SKC,0.00,WeatherDisplay:10.37,2013-01-26 04:08:00,
2013-01-26 15:13:00,71.8,46.8,29.85,South,180,3.5,3.5,41,0.00,CLR,SKC,0.00,WeatherDisplay:10.37,2013-01-26 04:13:00,
2013-01-26 15:19:00,72.0,47.0,29.85,SSE,158,3.5,3.5,41,0.00,CLR,SKC,0.00,WeatherDisplay:10.37,2013-01-26 04:19:00,
2013-01-26 15:24:00,72.1,47.1,29.84,ESE,112,5.8,5.8,41,0.00,CLR,SKC,0.00,WeatherDisplay:10.37,2013-01-26 04:24:00,
2013-01-26 15:29:00,72.0,46.3,29.84,SSE,158,3.6,3.6,40,0.00,CLR,SKC,0.00,WeatherDisplay:10.37,2013-01-26 04:29:00,
2013-01-26 15:34:00,71.8,46.8,29.83,ENE,68,6.9,6.9,41,0.00,CLR,SKC,0.00,WeatherDisplay:10.37,2013-01-26 04:34:00,
2013-01-26 15:39:00,72.1,46.5,29.83,SE,135,3.5,3.5,40,0.00,CLR,SKC,0.00,WeatherDisplay:10.37,2013-01-26 04:39:00,
2013-01-26 15:44:00,71.2,45.7,29.83,NW,315,9.2,9.2,40,0.00,CLR,SKC,0.00,WeatherDisplay:10.37,2013-01-26 04:44:00,
2013-01-26 15:50:00,70.7,45.8,29.83,East,90,3.5,3.5,41,0.00,CLR,SKC,0.00,WeatherDisplay:10.37,2013-01-26 04:50:00,
2013-01-26 15:55:00,70.5,45.7,29.83,East,100,2.0,3.0,41,0.00,CLR,SKC,0.00,WeatherDisplay:10.37,2013-01-26 04:55:00,
2013-01-26 15:59:00,70.9,46.6,29.83,ESE,121,5.0,5.0,42,0.00,CLR,SKC,0.00,WeatherDisplay:10.37,2013-01-26 04:59:00,
2013-01-26 16:00:00,70.9,46.6,29.83,NE,45,4.6,4.6,42,0.00,CLR,SKC,0.00,WeatherDisplay:10.37,2013-01-26 05:00:00,
2013-01-26 16:03:00,70.9,46.0,29.83,SW,225,3.5,3.5,41,0.00,CLR,SKC,0.00,WeatherDisplay:10.37,2013-01-26 05:03:00,
2013-01-26 16:05:00,70.9,46.0,29.83,South,180,4.0,4.0,41,0.00,CLR,SKC,0.00,WeatherDisplay:10.37,2013-01-26 05:05:00,
2013-01-26 16:10:00,70.5,46.3,29.83,South,180,2.3,2.3,42,0.00,CLR,SKC,0.00,WeatherDisplay:10.37,2013-01-26 05:10:00,
2013-01-26 16:15:00,70.3,46.2,29.83,ENE,68,4.9,4.9,42,0.00,CLR,SKC,0.00,WeatherDisplay:10.37,2013-01-26 05:15:00,
2013-01-26 16:20:00,69.6,45.5,29.83,NNW,338,2.5,2.5,42,0.00,CLR,SKC,0.00,WeatherDisplay:10.37,2013-01-26 05:20:00,
2013-01-26 16:26:00,69.6,46.1,29.83,SE,135,4.7,4.7,43,0.00,CLR,SKC,0.00,WeatherDisplay:10.37,2013-01-26 05:26:00,
2013-01-26 16:31:00,69.1,45.6,29.83,SSW,202,3.5,3.5,43,0.00,CLR,SKC,0.00,WeatherDisplay:10.37,2013-01-26 05:31:00,
2013-01-26 16:36:00,69.1,46.2,29.83,WSW,248,2.5,2.5,44,0.00,CLR,SKC,0.00,WeatherDisplay:10.37,2013-01-26 05:36:00,
2013-01-26 16:42:00,69.1,45.6,29.83,SSW,202,3.5,3.5,43,0.00,CLR,SKC,0.00,WeatherDisplay:10.37,2013-01-26 05:42:00,
2013-01-26 16:47:00,68.7,45.9,29.83,NW,315,0.0,0.0,44,0.00,CLR,SKC,0.00,WeatherDisplay:10.37,2013-01-26 05:47:00,
2013-01-26 16:52:00,68.7,45.9,29.83,SW,225,4.9,4.9,44,0.00,CLR,SKC,0.00,WeatherDisplay:10.37,2013-01-26 05:52:00,
2013-01-26 16:57:00,68.7,45.9,29.83,WSW,248,3.5,3.5,44,0.00,CLR,SKC,0.00,WeatherDisplay:10.37,2013-01-26 05:57:00,
2013-01-26 17:02:00,68.9,46.1,29.82,SW,225,2.7,2.7,44,0.00,CLR,SKC,0.00,WeatherDisplay:10.37,2013-01-26 06:02:00,
2013-01-26 17:07:00,68.9,46.1,29.82,SW,225,1.6,1.6,44,0.00,CLR,SKC,0.00,WeatherDisplay:10.37,2013-01-26 06:07:00,
2013-01-26 17:12:00,68.9,46.1,29.82,SSE,158,4.7,4.7,44,0.00,CLR,SKC,0.00,WeatherDisplay:10.37,2013-01-26 06:12:00,
2013-01-26 17:18:00,68.7,45.9,29.82,NW,315,3.5,0.0,44,0.00,CLR,SKC,0.00,WeatherDisplay:10.37,2013-01-26 06:18:00,
2013-01-26 17:23:00,68.7,45.9,29.82,SW,225,4.7,4.7,44,0.00,CLR,SKC,0.00,WeatherDisplay:10.37,2013-01-26 06:23:00,
2013-01-26 17:28:00,68.7,45.9,29.82,SW,225,5.8,5.8,44,0.00,CLR,SKC,0.00,WeatherDisplay:10.37,2013-01-26 06:28:00,
2013-01-26 17:33:00,68.5,45.8,29.82,NNW,338,2.5,2.5,44,0.00,CLR,SKC,0.00,WeatherDisplay:10.37,2013-01-26 06:33:00,
2013-01-26 17:38:00,68.5,45.8,29.81,WSW,248,5.8,5.8,44,0.00,CLR,SKC,0.00,WeatherDisplay:10.37,2013-01-26 06:38:00,
2013-01-26 17:43:00,68.4,45.6,29.82,WSW,248,7.2,7.2,44,0.00,CLR,SKC,0.00,WeatherDisplay:10.37,2013-01-26 06:43:00,
2013-01-26 17:48:00,68.0,45.3,29.81,SSE,158,2.0,2.0,44,0.00,CLR,SKC,0.00,WeatherDisplay:10.37,2013-01-26 06:48:00,
2013-01-26 17:53:00,67.8,45.1,29.81,WSW,248,3.8,3.8,44,0.00,CLR,SKC,0.00,WeatherDisplay:10.37,2013-01-26 06:53:00,
2013-01-26 17:59:00,67.6,44.9,29.81,NNW,338,2.3,0.0,44,0.00,CLR,SKC,0.00,WeatherDisplay:10.37,2013-01-26 06:59:00,
2013-01-26 18:04:00,67.3,44.6,29.81,West,270,3.5,3.5,44,0.00,CLR,SKC,0.00,WeatherDisplay:10.37,2013-01-26 07:04:00,
2013-01-26 18:09:00,67.3,44.6,29.81,WSW,248,3.5,3.5,44,0.00,CLR,SKC,0.00,WeatherDisplay:10.37,2013-01-26 07:09:00,
2013-01-26 18:14:00,67.1,44.4,29.81,SW,225,5.1,5.1,44,0.00,CLR,SKC,0.00,WeatherDisplay:10.37,2013-01-26 07:14:00,
2013-01-26 18:19:00,66.9,44.3,29.81,WSW,248,9.2,9.2,44,0.00,CLR,SKC,0.00,WeatherDisplay:10.37,2013-01-26 07:19:00,
2013-01-26 18:24:00,66.7,44.7,29.81,SW,230,0.0,9.0,45,0.00,CLR,SKC,0.00,WeatherDisplay:10.37,2013-01-26 07:24:00,
2013-01-26 18:30:00,66.6,44.5,29.81,WSW,237,3.0,5.0,45,0.00,CLR,SKC,0.00,WeatherDisplay:10.37,2013-01-26 07:30:00,
2013-01-26 18:35:00,66.6,44.5,29.81,South,188,2.0,5.0,45,0.00,CLR,SKC,0.00,WeatherDisplay:10.37,2013-01-26 07:35:00,
2013-01-26 18:40:00,66.4,44.4,29.81,SSE,158,5.1,5.1,45,0.00,CLR,SKC,0.00,WeatherDisplay:10.37,2013-01-26 07:40:00,
2013-01-26 18:44:00,66.3,44.3,29.80,West,272,3.0,5.0,45,0.00,CLR,SKC,0.00,WeatherDisplay:10.37,2013-01-26 07:44:00,
2013-01-26 18:50:00,66.2,44.2,29.80,WSW,256,2.0,5.0,45,0.00,CLR,SKC,0.00,WeatherDisplay:10.37,2013-01-26 07:50:00,
2013-01-26 18:55:00,66.0,44.1,29.80,SSW,209,2.0,2.0,45,0.00,CLR,SKC,0.00,WeatherDisplay:10.37,2013-01-26 07:55:00,
2013-01-26 19:00:00,65.8,43.9,29.81,SW,215,2.0,6.0,45,0.00,CLR,SKC,0.00,WeatherDisplay:10.37,2013-01-26 08:00:00,
2013-01-26 19:04:00,65.7,43.7,29.81,SSW,201,1.0,3.0,45,0.00,CLR,SKC,0.00,WeatherDisplay:10.37,2013-01-26 08:04:00,
2013-01-26 19:09:00,65.5,43.6,29.81,South,180,4.9,4.9,45,0.00,CLR,SKC,0.00,WeatherDisplay:10.37,2013-01-26 08:09:00,
2013-01-26 19:15:00,65.3,43.4,29.81,West,259,3.0,5.0,45,0.00,CLR,SKC,0.00,WeatherDisplay:10.37,2013-01-26 08:15:00,
2013-01-26 19:20:00,65.3,43.4,29.81,West,264,2.0,3.0,45,0.00,CLR,SKC,0.00,WeatherDisplay:10.37,2013-01-26 08:20:00,
2013-01-26 19:24:00,65.1,43.2,29.81,West,281,5.0,5.0,45,0.00,CLR,SKC,0.00,WeatherDisplay:10.37,2013-01-26 08:24:00,
2013-01-26 19:29:00,64.9,43.1,29.81,West,270,3.5,3.5,45,0.00,CLR,SKC,0.00,WeatherDisplay:10.37,2013-01-26 08:29:00,
2013-01-26 19:34:00,64.9,43.1,29.82,SW,224,2.0,4.0,45,0.00,CLR,SKC,0.00,WeatherDisplay:10.37,2013-01-26 08:34:00,
2013-01-26 19:40:00,64.9,43.1,29.82,SW,230,0.0,4.0,45,0.00,CLR,SKC,0.00,WeatherDisplay:10.37,2013-01-26 08:40:00,
2013-01-26 19:45:00,64.6,43.3,29.82,South,180,1.3,1.3,46,0.00,CLR,SKC,0.00,WeatherDisplay:10.37,2013-01-26 08:45:00,
2013-01-26 19:50:00,64.6,43.3,29.82,SW,236,1.0,3.0,46,0.00,CLR,SKC,0.00,WeatherDisplay:10.37,2013-01-26 08:50:00,
2013-01-26 19:55:00,64.4,43.2,29.82,WSW,249,1.0,3.0,46,0.00,CLR,SKC,0.00,WeatherDisplay:10.37,2013-01-26 08:55:00,
2013-01-26 19:59:00,64.1,42.9,29.82,SW,219,2.0,3.0,46,0.00,CLR,SKC,0.00,WeatherDisplay:10.37,2013-01-26 08:59:00,
2013-01-26 20:04:00,64.0,42.8,29.82,WSW,248,3.5,3.5,46,0.00,CLR,SKC,0.00,WeatherDisplay:10.37,2013-01-26 09:04:00,
2013-01-26 20:10:00,63.9,42.7,29.83,WSW,247,0.0,3.0,46,0.00,CLR,SKC,0.00,WeatherDisplay:10.37,2013-01-26 09:10:00,
2013-01-26 20:15:00,63.3,42.2,29.83,South,180,3.5,3.5,46,0.00,CLR,SKC,0.00,WeatherDisplay:10.37,2013-01-26 09:15:00,
2013-01-26 20:20:00,63.3,42.2,29.83,SSE,155,1.0,1.0,46,0.00,CLR,SKC,0.00,WeatherDisplay:10.37,2013-01-26 09:20:00,
2013-01-26 20:25:00,63.1,42.6,29.83,SSE,155,0.0,2.0,47,0.00,CLR,SKC,0.00,WeatherDisplay:10.37,2013-01-26 09:25:00,
2013-01-26 20:30:00,62.6,42.1,29.84,SW,225,2.0,2.0,47,0.00,CLR,SKC,0.00,WeatherDisplay:10.37,2013-01-26 09:30:00,
2013-01-26 20:34:00,62.4,41.9,29.84,SW,231,3.0,7.0,47,0.00,CLR,SKC,0.00,WeatherDisplay:10.37,2013-01-26 09:34:00,
2013-01-26 20:40:00,61.9,42.0,29.85,SW,236,6.0,6.0,48,0.00,CLR,SKC,0.00,WeatherDisplay:10.37,2013-01-26 09:40:00,
2013-01-26 20:44:00,61.2,41.9,29.85,SW,228,2.0,6.0,49,0.00,CLR,SKC,0.00,WeatherDisplay:10.37,2013-01-26 09:44:00,
2013-01-26 20:50:00,60.8,41.5,29.85,SSW,207,0.0,1.0,49,0.00,CLR,SKC,0.00,WeatherDisplay:10.37,2013-01-26 09:50:00,
2013-01-26 20:54:00,60.6,41.9,29.85,WSW,240,3.0,4.0,50,0.00,CLR,SKC,0.00,WeatherDisplay:10.37,2013-01-26 09:54:00,
2013-01-26 20:59:00,60.1,41.9,29.85,SSW,204,2.0,4.0,51,0.00,CLR,SKC,0.00,WeatherDisplay:10.37,2013-01-26 09:59:00,
2013-01-26 21:05:00,59.7,41.6,29.86,SSW,204,3.0,3.0,51,0.00,CLR,SKC,0.00,WeatherDisplay:10.37,2013-01-26 10:05:00,
2013-01-26 21:10:00,59.5,41.9,29.86,West,271,0.0,3.0,52,0.00,CLR,SKC,0.00,WeatherDisplay:10.37,2013-01-26 10:10:00,
2013-01-26 21:15:00,59.4,42.2,29.86,West,270,3.5,3.5,53,0.00,CLR,SKC,0.00,WeatherDisplay:10.37,2013-01-26 10:15:00,
2013-01-26 21:20:00,59.2,42.0,29.87,North,0,0.0,0.0,53,0.00,CLR,SKC,0.00,WeatherDisplay:10.37,2013-01-26 10:20:00,
2013-01-26 21:25:00,59.0,42.4,29.87,WSW,248,3.5,3.5,54,0.00,CLR,SKC,0.00,WeatherDisplay:10.37,2013-01-26 10:25:00,
2013-01-26 21:31:00,58.6,42.0,29.86,South,180,5.8,5.8,54,0.00,CLR,SKC,0.00,WeatherDisplay:10.37,2013-01-26 10:31:00,
2013-01-26 21:36:00,58.5,42.3,29.86,SW,225,1.1,1.1,55,0.00,CLR,SKC,0.00,WeatherDisplay:10.37,2013-01-26 10:36:00,
2013-01-26 21:41:00,58.3,42.6,29.87,WSW,248,3.5,3.5,56,0.00,CLR,SKC,0.00,WeatherDisplay:10.37,2013-01-26 10:41:00,
2013-01-26 21:46:00,58.3,42.6,29.87,WSW,248,3.5,3.5,56,0.00,CLR,SKC,0.00,WeatherDisplay:10.37,2013-01-26 10:46:00,
2013-01-26 21:51:00,58.1,42.9,29.87,SW,225,2.3,2.3,57,0.00,CLR,SKC,0.00,WeatherDisplay:10.37,2013-01-26 10:51:00,
2013-01-26 21:57:00,57.9,42.3,29.88,SSW,202,5.8,5.8,56,0.00,CLR,SKC,0.00,WeatherDisplay:10.37,2013-01-26 10:57:00,
2013-01-26 22:02:00,57.9,42.8,29.87,SW,225,5.8,5.8,57,0.00,CLR,SKC,0.00,WeatherDisplay:10.37,2013-01-26 11:02:00,
2013-01-26 22:07:00,57.7,42.6,29.88,SSW,202,4.0,4.0,57,0.00,CLR,SKC,0.00,WeatherDisplay:10.37,2013-01-26 11:07:00,
2013-01-26 22:12:00,57.6,42.9,29.87,South,180,1.1,1.1,58,0.00,CLR,SKC,0.00,WeatherDisplay:10.37,2013-01-26 11:12:00,
2013-01-26 22:17:00,57.4,42.7,29.88,SSW,202,3.5,3.5,58,0.00,CLR,SKC,0.00,WeatherDisplay:10.37,2013-01-26 11:17:00,
2013-01-26 22:23:00,57.0,42.8,29.88,South,180,5.8,5.8,59,0.00,CLR,SKC,0.00,WeatherDisplay:10.37,2013-01-26 11:23:00,
2013-01-26 22:28:00,56.8,43.1,29.88,South,180,2.3,2.3,60,0.00,CLR,SKC,0.00,WeatherDisplay:10.37,2013-01-26 11:28:00,
2013-01-26 22:33:00,56.5,43.2,29.87,SW,225,0.0,0.0,61,0.00,CLR,SKC,0.00,WeatherDisplay:10.37,2013-01-26 11:33:00,
2013-01-26 22:38:00,56.5,43.2,29.88,WSW,248,0.0,0.0,61,0.00,CLR,SKC,0.00,WeatherDisplay:10.37,2013-01-26 11:38:00,
2013-01-26 22:43:00,56.1,42.8,29.87,West,270,2.3,2.3,61,0.00,CLR,SKC,0.00,WeatherDisplay:10.37,2013-01-26 11:43:00,
2013-01-26 22:48:00,55.9,43.1,29.88,SSE,158,1.1,1.1,62,0.00,CLR,SKC,0.00,WeatherDisplay:10.37,2013-01-26 11:48:00,
2013-01-26 22:54:00,55.6,43.2,29.88,SW,225,2.3,2.3,63,0.00,CLR,SKC,0.00,WeatherDisplay:10.37,2013-01-26 11:54:00,
2013-01-26 22:59:00,55.4,43.0,29.88,WNW,292,0.0,0.0,63,0.00,CLR,SKC,0.00,WeatherDisplay:10.37,2013-01-26 11:59:00,
2013-01-26 23:04:00,55.2,43.2,29.88,SW,225,0.0,0.0,64,0.00,CLR,SKC,0.00,WeatherDisplay:10.37,2013-01-26 12:04:00,
2013-01-26 23:09:00,55.0,43.1,29.87,WSW,248,1.1,1.1,64,0.00,CLR,SKC,0.00,WeatherDisplay:10.37,2013-01-26 12:09:00,
2013-01-26 23:14:00,55.0,43.5,29.87,SE,135,2.3,2.3,65,0.00,CLR,SKC,0.00,WeatherDisplay:10.37,2013-01-26 12:14:00,
2013-01-26 23:20:00,54.7,43.5,29.87,South,187,0.0,1.0,66,0.00,CLR,SKC,0.00,WeatherDisplay:10.37,2013-01-26 12:20:00,
2013-01-26 23:24:00,54.7,43.9,29.87,SW,225,2.3,2.3,67,0.00,CLR,SKC,0.00,WeatherDisplay:10.37,2013-01-26 12:24:00,
2013-01-26 23:30:00,54.5,44.2,29.86,WSW,238,1.0,2.0,68,0.00,CLR,SKC,0.00,WeatherDisplay:10.37,2013-01-26 12:30:00,
2013-01-26 23:35:00,54.3,44.0,29.87,SW,234,1.0,1.0,68,0.00,CLR,SKC,0.00,WeatherDisplay:10.37,2013-01-26 12:35:00,
2013-01-26 23:39:00,54.3,44.0,29.86,WSW,248,1.1,1.1,68,0.00,CLR,SKC,0.00,WeatherDisplay:10.37,2013-01-26 12:39:00,
2013-01-26 23:44:00,54.2,44.2,29.86,SW,229,1.0,2.0,69,0.00,CLR,SKC,0.00,WeatherDisplay:10.37,2013-01-26 12:44:00,
2013-01-26 23:50:00,54.1,44.2,29.86,SW,225,1.6,1.6,69,0.00,CLR,SKC,0.00,WeatherDisplay:10.37,2013-01-26 12:50:00,
2013-01-26 23:55:00,54.0,44.0,29.85,SSW,202,0.0,0.0,69,0.00,CLR,SKC,0.00,WeatherDisplay:10.37,2013-01-26 12:55:00,